Weather Roundup
Issued by NWS Chicago, IL

Home | Current Version | Previous Version | Text Only | Print | Product List | Glossary Off
Versions: 1 2 3 4 5 6 7 8 9 10 11 12 13 14 15 16 17 18 19 20 21 22 23 24 25 26 27 28 29 30 31 32 33 34 35 36 37 38 39 40 41 42 43 44 45 46 47 48 49 50

000
NZUS59 KLOT 302121
HRRLOT

CHICAGO AREA WEATHER ROUNDUP
NATIONAL WEATHER SERVICE CHICAGO/ROMEOVILLE IL
400 PM CDT SUN AUG 30 2015

NOTE: "FAIR" INDICATES FEW OR NO CLOUDS BELOW 12,000 FEET WITH NO
SIGNIFICANT WEATHER AND/OR OBSTRUCTIONS TO VISIBILITY.

* THESE STATIONS ARE NOT UNDER NWS QUALITY CONTROL. THEY ALSO MAY NOT
  REPORT WEATHER SUCH AS PRECIPITATION OR FOG.

ILZ005-006-012>014-019>023-302200-
NORTHEAST ILLINOIS

CITY           SKY/WX    TMP DP  RH WIND       PRES   REMARKS
OHARE          PTSUNNY   77  63  61 W7        30.03F
MIDWAY         PTSUNNY   76  64  66 E8        30.03F
AURORA         PTSUNNY   77  65  66 W5        30.04F
LANSING*       PTSUNNY   78  65  63 CALM      30.03F HX  80
JOLIET*        MOSUNNY   80  65  60 SW3       30.03F HX  81
WAUKEGAN       CLOUDY    69  63  81 E6        30.04F
DUPAGE AIRPORT MOSUNNY   76  62  62 W3        30.03F
WHEELING       MOSUNNY   76  62  62 W3        30.04F
KANKAKEE*      MOSUNNY   79  68  69 CALM      30.04F HX  82
MORRIS*        MOSUNNY   77  65  66 CALM      30.02F
LEWIS AIRPORT* MOSUNNY   76  63  62 CALM      30.03F
NORTHERLY IS     N/A     69  65  86 N7          N/A
$$

WIZ051-052-058>065-066-070>072-302200-
SOUTHEAST WISCONSIN

CITY           SKY/WX    TMP DP  RH WIND       PRES   REMARKS
MILWAUKEE      CLOUDY    70  62  76 SE9       30.03F
KENOSHA*       PTSUNNY   72  64  76 SE6       30.04F
RACINE*        MOSUNNY   70  62  76 SE7       30.05F
BURLINGTON     MOSUNNY   73  61  64 SW5       30.04S
WAUKESHA       MOSUNNY   72  63  73 SW5       30.05F
WEST BEND      MOSUNNY   73  61  64 CALM      30.03F
$$

INZ001>003-010>013-019-020-302200-
NORTHWEST INDIANA

CITY           SKY/WX    TMP DP  RH WIND       PRES   REMARKS
GARY*          MOSUNNY   73  64  73 N7        30.05F
MICHIGAN CITY* NOT AVBL
RENSSELAER*    NOT AVBL
VALPARAISO     PTSUNNY   77  67  71 NE3       30.04F
$$

LMZ740>746-302200-
SOUTHERN LAKE MICHIGAN

STATION/POSITION TIME  SKY/WX   TEMP WIND        PRES    VSBY
                                AIR  DIR/SP/G
                 (UTC)          (F)  (DEG/KT/KT) (MB)    (MI)
HARRISON CRIB    2000            65   20/  7/  8   N/A
BURNHAM HARBOR   2100            69   20/  5/  7   N/A
CALUMET HARBOR   NOT AVBL
BURNS HARBOR     NOT AVBL
MICHIGAN CITY    2000            71  330/  5/  6   N/A
$$

ABBREVIATIONS USED IN REMARKS
   TC - TEMPERATURE IN CELSIUS
  WCI - WIND CHILL INDEX
   HX - HEAT INDEX
  VSB - VISIBILITY
$$


USA.gov is the U.S. government's official web portal to all federal, state and local government web resources and services.